New Bedford, MA

6:55 PM EDT on May 23, 2017 (GMT -0400)
New Bedford Regional

Weather History for KEWB - October, 2012

Change the Weather History Date:

Friday, October 5, 2012

  Actual Average Record
Temperature  
Mean Temperature 68 °F -  
Max Temperature 77 °F 66 °F 82 °F (2002)
Min Temperature 60 °F 50 °F 32 °F (1996)
Cooling Degree Days 4    
Growing Degree Days 18 (Base 50)    
Moisture  
Dew Point 60 °F    
Average Humidity 84    
Maximum Humidity 97    
Minimum Humidity 46    
Precipitation  
Precipitation 0.00 in - - ()
Sea Level Pressure  
Sea Level Pressure 29.99 in    
Wind  
Wind Speed 2 mph (West)    
Max Wind Speed 8 mph    
Max Gust Speed -    
Visibility 6 miles    
Events Fog    
Averages and records for this station are not official NWS values.
T = Trace of Precipitation, MM = Missing Value Source: NWS Daily Summary

Daily Weather History Graph

Daily Weather History Graph

Search for Another Location

Airport or City:

Trip Planner

Search our weather history database for the weather conditions in past years. The results will help you decide how hot, cold, wet, or windy it might be!

Date:

Astronomy

Oct. 05, 2012 Rise Set
Actual Time 6:45 AM EDT 6:18 PM EDT
Civil Twilight 6:17 AM EDT 6:45 PM EDT
Nautical Twilight 5:45 AM EDT 7:17 PM EDT
Astronomical Twilight 5:13 AM EDT 7:50 PM EDT
Moon 9:35 PM EDT (10/5) 11:54 AM EDT (10/5)
Length of Visible Light 12h 28m
Length of Day
11h 32m
Waning Gibbous, 74% of the Moon is Illuminated
Oct 5
Waning Gibbous
Oct 8
Last Quarter
Oct 15
New
Oct 21
First Quarter
Oct 29
Full

Hourly Weather History & Observations

Time (EDT) Temp. Dew Point Humidity Pressure Visibility Wind Dir Wind Speed Gust Speed Precip Events Conditions
12:26 AM 62.6 °F 60.8 °F 94% 30.02 in 3.0 mi Calm Calm - N/A   Overcast
12:53 AM 62.1 °F 60.1 °F 93% 30.03 in 2.5 mi Calm Calm - N/A   Overcast
1:06 AM 62.6 °F 60.8 °F 94% 30.02 in 3.0 mi Calm Calm - N/A   Overcast
1:17 AM 62.6 °F 60.8 °F 94% 30.03 in 1.8 mi WNW 3.5 mph - N/A   Overcast
1:31 AM 62.6 °F 60.8 °F 94% 30.02 in 0.5 mi West 4.6 mph - N/A Fog Fog
1:53 AM 62.1 °F 61.0 °F 96% 30.02 in 0.5 mi Calm Calm - N/A Fog Fog
2:20 AM 62.6 °F 60.8 °F 94% 30.01 in 0.2 mi Calm Calm - N/A Fog Fog
2:53 AM 62.1 °F 61.0 °F 96% 30.00 in 0.2 mi Calm Calm - N/A Fog Fog
3:06 AM 62.6 °F 60.8 °F 94% 30.00 in 0.2 mi Calm Calm - N/A Fog Fog
3:41 AM 62.6 °F 60.8 °F 94% 30.00 in 0.2 mi Calm Calm - N/A Fog Fog
3:53 AM 62.1 °F 61.0 °F 96% 30.00 in 0.5 mi Calm Calm - N/A Fog Fog
4:05 AM 62.6 °F 60.8 °F 94% 30.00 in 2.0 mi WNW 3.5 mph - N/A   Overcast
4:14 AM 62.6 °F 60.8 °F 94% 30.00 in 5.0 mi Variable 3.5 mph - N/A   Overcast
4:24 AM 62.6 °F 60.8 °F 94% 30.00 in 7.0 mi Calm Calm - N/A   Overcast
4:53 AM 62.1 °F 60.1 °F 93% 30.00 in 6.0 mi WNW 3.5 mph - N/A   Overcast
5:30 AM 62.6 °F 60.8 °F 94% 30.00 in 5.0 mi NW 3.5 mph - N/A   Overcast
5:53 AM 62.1 °F 60.1 °F 93% 30.01 in 5.0 mi WNW 3.5 mph - N/A   Overcast
6:53 AM 62.1 °F 60.1 °F 93% 30.02 in 3.0 mi Calm Calm - N/A   Overcast
7:07 AM 60.8 °F 59.0 °F 94% 30.02 in 2.0 mi WNW 5.8 mph - N/A   Overcast
7:53 AM 61.0 °F 60.1 °F 97% 30.03 in 3.0 mi West 3.5 mph - N/A   Mostly Cloudy
8:46 AM 62.6 °F 60.8 °F 94% 30.03 in 5.0 mi Calm Calm - N/A   Scattered Clouds
8:53 AM 64.0 °F 60.1 °F 87% 30.03 in 7.0 mi Calm Calm - N/A   Partly Cloudy
9:53 AM 68.0 °F 60.1 °F 76% 30.02 in 10.0 mi Calm Calm - N/A   Clear
10:53 AM 71.1 °F 61.0 °F 70% 30.01 in 10.0 mi WSW 4.6 mph - N/A   Clear
11:53 AM 73.9 °F 57.9 °F 57% 29.99 in 10.0 mi WNW 6.9 mph - N/A   Partly Cloudy
12:53 PM 75.2 °F 59.0 °F 57% 29.98 in 10.0 mi WNW 8.1 mph - N/A   Clear
1:53 PM 75.0 °F 57.0 °F 53% 29.96 in 10.0 mi West 5.8 mph - N/A   Partly Cloudy
2:53 PM 75.9 °F 54.0 °F 46% 29.95 in 10.0 mi Variable 4.6 mph - N/A   Clear
3:53 PM 77.0 °F 55.0 °F 47% 29.93 in 10.0 mi Variable 3.5 mph - N/A   Clear
4:53 PM 75.9 °F 55.0 °F 48% 29.93 in 10.0 mi West 5.8 mph - N/A   Clear
5:53 PM 69.1 °F 60.1 °F 73% 29.94 in 10.0 mi SSW 4.6 mph - N/A   Clear
6:53 PM 66.0 °F 60.1 °F 81% 29.95 in 10.0 mi WSW 3.5 mph - N/A   Clear
7:53 PM 62.1 °F 59.0 °F 90% 29.96 in 9.0 mi SSW 3.5 mph - N/A   Clear
8:53 PM 61.0 °F 59.0 °F 93% 29.95 in 8.0 mi SSW 3.5 mph - N/A   Clear
9:53 PM 61.0 °F 57.0 °F 87% 29.95 in 10.0 mi SW 3.5 mph - N/A   Clear
10:53 PM 63.0 °F 57.9 °F 84% 29.94 in 10.0 mi WSW 4.6 mph - N/A   Clear
11:53 PM 62.1 °F 59.0 °F 90% 29.93 in 6.0 mi WSW 5.8 mph - N/A   Clear